User: anonymous   Login
Location: Champignolles
(47.0543°N, 4.5663°E)
Time: 16:45:46
(UTC+00:00)
Language:

YAOGAN 1 - Orbit

View from above orbital plane
View from above orbital plane
View from above satellite
View from above satellite

Ground track
Ground track

The orbit data is extracted from the following two-line orbital elements,

1 29092U 06015A   21062.86457573  .00000125  00000-0  21787-4 0  9997
2 29092  97.9200  91.2438 0001445  91.0621 269.0758 14.83134068803186
Epoch (UTC): 03 March 2021 20:44:59
Eccentricity: 0.0001445
inclination: 97.9200°
perigee height: 618 km
apogee height: 620 km
right ascension of ascending node: 91.2438°
argument of perigee: 91.0621°
revolutions per day: 14.83134068
mean anomaly at epoch: 269.0758°
orbit number at epoch: 80318

The dashed part of the orbit path shows where the satellite is in the earth's shadow,  

DLR